Back to catalog

STARLINK-36384

AliveCommunicationsSSO
NORAD 67597·PAYLOAD·🇺🇸 United States

Launched Jan 29, 2026 from Vandenberg Space Force Base

Loading…

Next Passes (next 24 hours)

TLE

FreshSource: CelesTrak SupGP

Epoch: Sep 14, 2026, 15:42 UTC

1 67597C 26018J   26257.65465278  .00043336  00000+0  13454-2 0  2570
2 67597  97.2850 321.2478 0000864 100.5536  50.4225 15.33414058    15

Track STARLINK-36384 in real time with AllMySat

Download on the App Store